GEFSNGP_con_probscp_126.txt.gz
Probability
0 0 0 0 0 0 0 0 1 3 6 9 14 19 20 19 16 14 13 13 13 10 7 7 8 9 11 10 8 7 9 10 10 10 9 8 6 4 4 4 5 6 6 6
0 0 0 0 0 1 2 2 2 4 8 13 18 21 21 19 18 17 15 15 16 15 12 10 9 10 12 11 9 9 10 11 11 10 10 8 6 5 5 5 5 6 5 5
0 0 0 0 1 3 6 8 8 9 14 20 24 25 22 20 21 21 19 17 18 18 16 13 11 13 15 14 13 11 11 11 11 10 10 8 6 6 6 5 5 4 4 3
0 0 0 0 1 4 9 13 15 15 19 24 27 28 25 22 22 22 20 17 16 15 15 14 14 15 16 16 16 14 13 11 10 8 7 7 6 6 5 4 4 3 3 3
0 0 0 1 1 2 7 13 16 17 19 20 22 27 27 24 21 21 19 18 15 12 12 13 14 15 16 15 15 14 12 10 8 6 5 4 4 4 4 3 3 3 3 3
0 0 0 0 0 1 4 9 12 14 16 14 15 21 23 20 17 17 19 20 18 14 12 13 15 16 16 14 14 13 10 8 7 6 5 4 4 3 3 3 3 3 3 3
0 0 0 0 0 0 2 5 8 11 13 12 11 14 16 15 13 13 16 19 18 16 13 13 17 20 19 17 15 12 9 7 6 6 6 6 5 4 3 3 3 2 2 2
0 0 0 1 1 1 2 4 5 6 8 9 9 9 11 11 11 11 12 13 14 14 13 12 16 20 20 17 13 10 8 6 4 5 7 6 4 3 2 2 1 1 1 1
0 0 0 1 2 3 4 4 3 3 5 6 6 6 6 7 7 8 9 9 10 10 10 10 12 15 14 10 7 5 4 3 3 4 5 5 2 1 1 1 0 0 0 0
0 0 0 1 2 3 4 3 3 3 4 4 4 3 3 3 4 5 5 6 7 7 7 7 7 7 6 3 2 1 1 1 1 2 4 3 2 0 0 0 0 0 0 0
0 0 0 1 2 3 2 1 1 2 3 2 2 1 1 3 3 3 3 4 5 5 5 5 4 3 2 1 1 0 0 0 0 1 2 2 1 0 0 0 0 0 0 0
0 0 0 1 2 2 1 0 0 1 1 1 0 0 1 2 2 2 2 3 4 4 3 2 1 1 1 1 0 0 0 0 0 0 1 1 0 0 0 0 0 0 0 0
0 0 0 0 1 1 0 0 0 0 0 0 0 0 0 1 1 1 1 1 1 1 1 0 0 0 1 1 1 1 0 0 0 0 0 0 0 0 0 0 0 0 0 0
0 0 0 0 0 0 0 0 0 0 0 0 0 0 0 0 0 0 0 0 0 0 0 0 0 0 1 2 2 1 0 0 0 0 0 0 0 0 0 0 0 0 0 0
0 0 0 0 0 0 0 0 0 0 0 0 0 0 0 0 0 0 0 0 0 0 0 0 0 0 1 2 2 1 0 0 0 0 0 0 0 0 0 0 0 0 0 0
0 0 0 0 0 0 0 0 0 0 0 0 0 0 0 0 0 0 0 0 0 0 0 0 0 0 0 1 1 0 0 0 0 0 0 0 0 0 0 0 0 0 0 0
0 0 0 0 0 0 0 0 0 0 0 0 0 0 0 0 0 0 0 0 0 0 0 0 0 0 0 0 0 0 0 0 0 0 0 0 0 0 0 0 0 0 0 0
0 0 0 0 0 0 0 0 0 0 0 0 0 0 0 0 0 0 0 0 0 0 0 0 0 0 0 0 0 0 0 0 0 0 0 0 0 0 0 0 0 0 0 0
0 0 0 0 0 0 0 0 0 0 0 0 0 0 0 0 0 0 0 0 0 0 0 0 0 0 0 0 0 0 0 0 0 0 0 0 0 0 0 0 0 0 0 0
0 0 0 0 0 0 0 0 0 0 0 0 0 0 0 0 0 0 0 0 0 0 0 0 0 0 0 0 0 0 0 0 0 0 0 0 0 0 0 0 0 0 0 0
0 0 0 0 0 0 0 0 0 0 0 0 0 0 0 0 0 0 0 0 0 0 0 0 0 0 0 0 0 0 0 0 0 0 0 0 0 0 0 0 0 0 0 0
0 0 0 0 0 0 0 0 0 0 0 0 0 0 0 0 0 0 0 0 0 0 0 0 0 0 0 0 0 0 0 0 0 0 0 0 0 0 0 0 0 0 0 0
0 0 0 0 0 0 0 0 0 0 0 0 0 0 0 0 0 0 0 0 0 0 0 0 0 0 0 0 0 0 0 0 0 0 0 0 0 0 0 0 0 0 0 0
0 0 0 0 0 0 0 0 0 0 0 0 0 0 0 0 0 0 0 0 0 0 0 0 0 0 0 0 0 0 0 0 0 0 0 0 0 0 0 0 0 0 0 0
0 0 0 0 0 0 0 0 0 0 0 0 0 0 0 0 0 0 0 0 0 0 0 0 0 0 0 0 0 0 0 0 0 0 0 0 0 0 0 0 0 0 0 0
0 0 0 0 0 0 0 0 0 0 0 0 0 0 0 0 0 0 0 0 0 0 0 0 0 0 0 0 0 0 0 0 0 0 0 0 0 0 0 0 0 0 0 0
0 0 0 0 0 0 0 0 0 0 0 0 0 0 0 0 0 0 0 0 0 0 0 0 0 0 0 0 0 0 0 0 0 0 0 0 0 0 0 0 0 0 0 0

GEFSNGP_con_probscp_132.txt.gz
Probability
0 0 0 0 0 0 0 0 0 0 1 3 4 3 3 3 4 5 6 6 4 3 2 3 3 2 1 1 2 4 6 7 7 6 6 6 6 5 3 1 0 0 0 0
0 0 0 0 0 0 0 0 0 0 1 4 4 4 4 4 4 5 5 4 4 2 1 2 2 2 1 0 1 3 5 7 7 6 6 6 7 6 4 3 1 0 0 0
0 0 0 0 0 0 1 1 1 2 4 6 7 6 6 6 5 4 3 3 3 1 0 1 1 1 0 0 0 2 4 7 8 7 6 7 8 7 6 5 3 1 1 0
0 0 0 0 1 2 4 5 4 5 10 11 9 7 7 7 6 5 4 2 2 1 1 0 0 0 1 1 1 2 4 6 8 8 6 7 7 7 7 6 5 3 2 1
0 0 0 0 2 3 5 6 5 6 10 11 8 6 7 7 7 6 4 3 2 2 2 1 0 1 3 4 3 2 4 6 7 7 7 6 6 6 6 6 6 4 3 2
0 0 0 0 1 1 2 3 2 3 6 7 6 5 5 6 6 4 3 3 3 3 3 2 1 2 6 7 4 3 4 6 7 7 6 6 6 5 4 4 5 4 2 1
0 0 0 0 0 0 0 1 1 2 3 4 4 4 4 4 4 3 3 3 4 3 3 3 2 3 6 8 6 4 5 7 7 7 6 6 6 6 4 3 3 2 1 0
0 0 0 0 0 0 0 1 2 3 3 4 4 3 3 3 3 3 3 3 4 3 3 3 4 5 6 7 7 6 7 8 7 7 6 6 6 6 5 3 1 0 0 0
1 1 1 0 0 0 1 2 3 3 4 4 4 4 3 2 2 2 1 1 2 2 2 5 6 6 6 6 5 5 6 7 6 6 6 6 6 5 3 1 0 0 0 0
2 2 2 1 0 0 1 3 4 3 3 3 4 3 3 1 1 1 0 0 0 1 3 5 6 5 4 3 3 3 3 3 3 3 3 3 3 3 1 0 0 0 0 0
2 2 2 1 0 0 1 2 3 3 2 2 3 3 3 2 1 0 0 1 1 2 4 5 4 3 2 1 1 1 0 1 1 1 1 1 1 1 0 0 0 0 0 0
1 1 1 1 0 0 0 1 2 2 2 2 2 2 3 3 2 1 1 2 2 3 4 4 3 2 1 0 0 0 0 0 0 0 0 0 0 0 0 0 0 0 0 0
0 0 0 0 0 0 1 1 2 2 2 2 1 1 2 3 3 3 2 2 2 2 2 2 1 1 0 0 0 0 0 0 0 0 0 0 0 0 0 0 0 0 0 0
0 0 0 0 0 1 2 3 3 2 1 1 0 0 1 2 2 2 2 1 1 1 1 1 0 0 0 0 0 0 0 0 0 0 0 0 0 0 0 0 0 0 0 0
0 0 0 0 0 1 2 3 2 1 0 0 0 0 0 1 1 1 1 0 0 0 0 0 0 0 0 0 0 0 0 0 0 0 0 0 0 0 0 0 0 0 0 0
0 0 0 0 0 1 2 2 1 0 0 0 0 0 0 0 0 0 0 0 0 0 0 0 0 0 0 0 0 0 0 0 0 0 0 0 0 0 0 0 0 0 0 0
0 0 0 0 0 0 1 1 0 0 0 0 0 0 0 0 0 0 0 0 0 0 0 0 0 0 0 0 0 0 0 0 0 0 0 0 0 0 0 0 0 0 0 0
0 0 0 0 0 0 0 0 0 0 0 0 0 0 0 0 0 0 0 0 0 0 0 0 0 0 0 0 0 0 0 0 0 0 0 0 0 0 0 0 0 0 0 0
0 0 0 0 0 0 0 0 0 0 0 0 0 0 0 0 0 0 0 0 0 0 0 0 0 0 0 0 0 0 0 0 0 0 0 0 0 0 0 0 0 0 0 0
0 0 0 0 0 0 0 0 0 0 0 0 0 0 0 0 0 0 0 0 0 0 0 0 0 0 0 0 0 0 0 0 0 0 0 0 0 0 0 0 0 0 0 0
0 0 0 0 0 0 0 0 0 0 0 0 0 0 0 0 0 0 0 0 0 0 0 0 0 0 0 0 0 0 0 0 0 0 0 0 0 0 0 0 0 0 0 0
0 0 0 0 0 0 0 0 0 0 0 0 0 0 0 0 0 0 0 0 0 0 0 0 0 0 0 0 0 0 0 0 0 0 0 0 0 0 0 0 0 0 0 0
0 0 0 0 0 0 0 0 0 0 0 0 0 0 0 0 0 0 0 0 0 0 0 0 0 0 0 0 0 0 0 0 0 0 0 0 0 0 0 0 0 0 0 0
0 0 0 0 0 0 0 0 0 0 0 0 0 0 0 0 0 0 0 0 0 0 0 0 0 0 0 0 0 0 0 0 0 0 0 0 0 0 0 0 0 0 0 0
0 0 0 0 0 0 0 0 0 0 0 0 0 0 0 0 0 0 0 0 0 0 0 0 0 0 0 0 0 0 0 0 0 0 0 0 0 0 0 0 0 0 0 0
0 0 0 0 0 0 0 0 0 0 0 0 0 0 0 0 0 0 0 0 0 0 0 0 0 0 0 0 0 0 0 0 0 0 0 0 0 0 0 0 0 0 0 0
0 0 0 0 0 0 0 0 0 0 0 0 0 0 0 0 0 0 0 0 0 0 0 0 0 0 0 0 0 0 0 0 0 0 0 0 0 0 0 0 0 0 0 0

GEFSNGP_con_probscp_138.txt.gz
Probability
0 0 0 0 0 0 0 0 0 1 3 9 14 16 16 15 14 18 22 22 22 22 21 19 15 9 6 3 3 3 4 5 7 9 9 9 9 8 8 10 11 10 8 6
0 0 0 0 0 0 0 0 0 1 5 12 18 21 21 19 18 20 23 23 22 21 19 16 12 10 7 5 4 4 4 4 6 8 10 11 12 10 10 12 13 11 8 7
0 0 0 0 0 0 0 1 2 5 9 16 22 25 26 24 22 23 24 25 23 19 15 11 9 10 9 8 7 7 7 6 6 8 10 12 14 14 14 15 16 15 11 10
0 0 0 1 1 0 1 2 5 10 15 19 24 26 26 25 24 23 24 25 23 20 16 12 9 9 10 11 11 11 11 10 10 11 11 12 16 18 18 19 20 19 15 13
0 0 1 2 2 1 2 3 8 15 20 22 22 22 21 23 24 23 22 22 22 22 21 17 11 8 10 11 12 13 14 15 16 17 17 17 19 21 20 21 21 20 16 13
0 0 1 2 2 2 3 5 11 18 23 24 21 21 22 22 22 22 22 21 21 22 24 21 15 11 11 12 13 14 15 16 19 22 22 23 23 22 20 20 21 19 15 12
0 0 0 1 3 5 9 13 18 23 27 28 27 26 25 22 21 22 21 21 20 21 23 22 19 17 16 16 16 15 16 18 20 21 23 24 24 23 21 20 20 17 13 11
1 0 1 3 8 14 20 25 27 30 32 32 29 25 22 20 19 19 18 17 17 18 20 20 19 18 18 18 18 16 17 19 22 22 23 24 24 24 22 20 17 13 10 8
2 2 3 7 15 22 27 29 29 30 32 29 23 20 18 16 15 15 14 13 12 13 14 15 14 14 14 15 16 17 17 19 22 23 21 20 20 20 19 17 12 9 7 6
4 5 5 9 16 23 25 25 25 26 26 23 19 17 15 13 11 10 10 9 8 8 7 8 8 10 11 12 14 16 16 17 18 18 15 12 11 12 12 10 8 6 6 6
6 6 6 9 16 21 22 21 22 24 22 19 17 14 10 8 7 6 5 6 6 5 4 4 5 7 9 10 11 13 13 12 12 10 7 6 5 5 5 6 5 5 5 6
7 7 8 10 14 19 19 18 19 20 18 15 13 9 6 5 4 4 3 4 4 4 4 3 3 4 6 7 8 8 8 8 6 3 2 2 2 2 2 3 3 3 3 3
8 8 8 8 11 14 17 16 16 15 13 10 8 6 3 3 3 3 3 3 4 4 4 3 3 3 3 5 5 5 4 3 2 0 0 1 1 1 1 1 1 1 1 1
6 7 7 6 7 10 12 13 12 11 8 7 5 3 1 1 2 2 2 2 3 3 3 2 2 1 1 2 3 3 1 1 0 0 0 0 0 0 0 0 0 0 0 0
5 6 6 5 5 5 7 9 8 7 6 4 3 1 0 0 1 1 0 1 1 2 1 1 1 0 0 0 1 1 0 0 0 0 0 0 0 0 0 0 0 0 0 0
4 4 4 3 3 3 4 5 5 5 4 3 1 0 0 0 0 0 0 0 0 0 0 0 0 0 0 0 0 0 0 0 0 0 0 0 0 0 0 0 0 0 0 0
2 2 3 3 3 2 2 4 4 3 3 1 0 0 0 0 0 0 0 0 0 0 0 0 0 0 0 0 0 0 0 0 0 0 0 0 0 0 0 0 0 0 0 0
2 2 2 2 1 1 2 3 3 2 1 0 0 0 0 0 0 0 0 0 0 0 0 0 0 0 0 0 0 0 0 0 0 0 0 0 0 0 0 0 0 0 0 0
2 2 2 1 0 1 2 2 2 1 0 0 0 0 0 0 0 0 0 0 0 0 0 0 0 0 0 0 0 0 0 0 0 0 0 0 0 0 0 0 0 0 0 0
2 2 1 0 1 2 2 1 1 0 0 0 0 0 0 0 0 0 0 0 0 0 0 0 0 0 0 0 0 0 0 0 0 0 0 0 0 0 0 0 0 0 0 0
1 1 0 0 1 1 1 0 0 0 0 0 0 0 0 0 0 0 0 0 0 0 0 0 0 0 0 0 0 0 0 0 0 0 0 0 0 0 0 0 0 0 0 0
0 1 1 1 1 0 0 0 0 0 0 0 0 0 0 0 0 0 0 0 0 0 0 0 0 0 0 0 0 0 0 0 0 0 0 0 0 0 0 0 0 0 0 0
1 1 1 1 0 0 0 0 0 0 0 0 0 0 0 0 0 0 0 0 0 0 0 0 0 0 0 0 0 0 0 0 0 0 0 0 0 0 0 0 0 0 0 0
0 1 1 0 0 0 0 0 0 0 0 0 0 0 0 0 0 0 0 0 0 0 0 0 0 0 0 0 0 0 0 0 0 0 0 0 0 0 0 0 0 0 0 0
0 0 0 0 0 0 0 0 0 0 0 0 0 0 0 0 0 0 0 0 0 0 0 0 0 0 0 0 0 0 0 0 0 0 0 0 0 0 0 0 0 0 0 0
0 0 0 0 0 0 0 0 0 0 0 0 0 0 0 0 0 0 0 0 0 0 0 0 0 0 0 0 0 0 0 0 0 0 0 0 0 0 0 0 0 0 0 0
0 0 0 0 0 0 0 0 0 0 0 0 0 0 0 0 0 0 0 0 0 0 0 0 0 0 0 0 0 0 0 0 0 0 0 0 0 0 0 0 0 0 0 0

GEFSNGP_con_probscp_144.txt.gz
Probability
0 0 0 0 0 0 0 1 3 7 12 16 22 28 34 41 50 56 56 51 50 52 53 47 39 33 29 24 20 18 17 17 18 19 19 22 24 25 26 25 21 20 22 22
0 0 0 0 0 0 0 1 4 9 16 23 28 34 40 46 52 58 58 54 53 55 55 49 40 33 30 26 24 25 23 21 22 22 22 22 23 24 26 26 25 24 25 24
0 0 0 0 0 0 1 3 6 12 21 31 38 46 51 52 56 61 61 59 58 57 56 50 40 35 33 29 28 28 26 24 25 26 25 24 24 25 28 29 29 28 27 26
0 0 0 0 0 0 2 7 13 20 30 40 50 58 61 60 60 62 62 61 60 58 56 51 42 38 35 29 27 26 23 23 25 26 26 25 26 28 30 31 31 30 27 27
0 0 0 1 1 1 4 13 24 34 42 49 54 59 62 64 62 59 58 59 57 56 56 52 46 41 35 29 25 22 20 21 23 24 25 25 26 29 31 32 31 28 26 25
0 0 0 1 3 4 8 21 36 46 50 51 52 54 57 59 57 54 52 52 52 52 51 48 44 41 38 32 26 22 21 22 22 22 21 22 25 28 30 30 28 24 22 21
0 0 2 4 6 11 22 38 50 53 54 57 58 56 52 50 49 48 45 42 43 45 43 41 40 40 39 33 26 24 23 22 22 20 18 19 23 26 27 27 24 20 18 18
9 12 18 21 21 27 41 53 58 57 59 63 61 53 45 40 40 39 36 34 35 37 37 35 35 35 35 31 26 24 22 20 19 17 16 17 20 23 25 24 19 17 18 18
29 33 40 43 41 42 47 51 52 52 54 54 47 40 36 34 33 32 32 31 32 33 32 30 27 26 26 25 23 20 18 15 14 14 15 15 16 18 21 21 18 16 15 14
39 41 46 48 45 43 41 41 41 41 41 40 34 31 31 31 30 30 30 30 29 29 27 24 20 17 17 16 15 15 13 12 11 12 13 12 10 11 14 16 15 12 9 7
32 33 37 40 39 39 38 37 34 33 34 33 30 28 28 29 28 27 26 25 23 21 18 16 13 11 9 10 12 12 11 10 10 11 10 7 5 5 7 8 8 7 4 3
26 27 30 32 33 34 35 33 31 31 32 31 27 25 26 26 25 23 20 19 17 14 11 10 7 6 5 8 12 13 11 9 8 8 5 2 2 2 2 2 2 2 1 1
19 22 24 24 25 28 29 29 29 32 31 27 24 23 24 23 21 17 15 15 14 11 9 7 5 3 3 6 9 10 8 6 5 3 2 1 1 1 0 0 0 0 0 0
10 13 17 18 19 24 26 27 29 32 30 25 22 22 22 20 15 12 10 10 9 8 7 5 4 2 1 2 4 4 4 3 1 1 1 0 0 0 0 0 0 0 0 0
6 8 11 13 15 20 23 25 27 27 25 22 20 19 16 13 10 7 6 6 5 5 4 3 2 2 1 0 0 0 1 1 0 0 0 0 0 0 0 0 0 0 0 0
7 7 8 10 13 17 18 20 22 21 19 17 15 12 9 7 6 5 5 4 3 3 2 1 1 1 0 0 0 0 0 0 0 0 0 0 0 0 0 0 0 0 0 0
5 6 7 9 12 15 16 17 16 16 14 12 9 6 4 4 5 4 3 2 1 1 0 0 0 0 0 0 0 0 0 0 0 0 0 0 0 0 0 0 0 0 0 0
3 4 6 9 11 12 13 12 11 11 11 8 6 4 3 4 4 2 1 1 0 0 0 0 0 0 0 0 0 0 0 0 0 0 0 0 0 0 0 0 0 0 0 0
3 4 6 8 8 9 9 8 8 9 8 6 4 4 3 3 3 1 0 0 0 0 0 0 0 0 0 0 0 0 0 0 0 0 0 0 0 0 0 0 0 0 0 0
3 3 3 4 6 6 6 7 6 6 6 4 4 3 3 2 2 1 0 0 0 0 0 0 0 0 0 0 0 0 0 0 0 0 0 0 0 0 0 0 0 0 0 0
2 2 1 2 4 5 4 4 4 4 4 5 4 3 1 1 1 0 0 0 0 0 0 0 0 0 0 0 0 0 0 0 0 0 0 0 0 0 0 0 0 0 0 0
2 2 2 2 4 4 3 3 3 4 4 5 4 2 1 0 0 0 0 0 0 0 0 0 0 0 0 0 0 0 0 0 0 0 0 0 0 0 0 0 0 0 0 0
3 4 3 3 3 3 2 2 2 3 4 4 4 2 1 1 0 0 0 0 0 0 0 0 0 0 0 0 0 0 0 0 0 0 0 0 0 0 0 0 0 0 0 0
3 4 3 2 1 1 1 1 1 2 3 3 2 2 2 1 0 0 0 0 0 0 0 0 0 0 0 0 0 0 0 0 0 0 0 0 0 0 0 0 0 0 0 0
1 1 1 0 0 0 0 1 2 2 2 1 1 1 1 0 0 0 0 0 0 0 0 0 0 0 0 0 0 0 0 0 0 0 0 0 0 0 0 0 0 0 0 0
0 0 0 0 0 0 1 2 3 2 1 0 0 0 0 0 0 0 0 0 0 0 0 0 0 0 0 0 0 0 0 0 0 0 0 0 0 0 0 0 0 0 0 0
0 0 0 0 0 0 1 2 3 1 0 0 0 0 0 0 0 0 0 0 0 0 0 0 0 0 0 0 0 0 0 0 0 0 0 0 0 0 0 0 0 0 0 0

GEFSNGP_con_probscp_150.txt.gz
Probability
0 0 0 0 0 0 0 0 1 4 7 13 23 33 36 39 45 50 48 40 32 24 17 12 11 11 12 12 10 9 8 7 6 5 5 5 6 6 6 5 4 3 2 2
0 0 0 0 0 0 0 1 4 6 8 14 26 37 41 41 47 51 49 42 35 28 21 16 14 13 12 10 9 10 9 7 6 6 6 7 7 8 8 8 7 7 6 5
0 0 0 0 0 0 1 4 8 10 13 20 31 40 41 42 48 52 49 43 39 32 25 21 18 15 12 9 8 8 8 8 7 8 8 7 8 8 9 9 9 10 9 8
0 0 0 0 0 1 5 9 13 16 21 30 39 42 40 42 47 50 46 42 38 31 24 21 19 16 12 9 8 8 8 8 8 9 7 6 6 6 6 7 8 9 8 7
0 0 0 0 0 3 10 19 23 27 34 41 46 47 44 43 45 44 41 39 35 28 22 17 16 14 11 9 9 9 9 8 8 8 8 6 6 5 5 4 5 6 5 4
0 0 1 2 3 4 12 23 29 35 42 47 48 48 46 43 41 39 37 35 32 27 21 14 11 11 10 9 9 9 8 8 7 7 8 7 7 6 5 4 4 4 3 2
0 0 2 5 6 4 9 17 28 38 44 45 44 44 42 39 36 34 32 31 28 24 17 10 7 7 7 7 6 6 6 5 4 5 6 7 7 6 6 5 4 4 3 3
0 0 2 5 6 4 8 16 27 36 40 39 40 39 36 32 29 27 26 25 23 19 13 7 4 4 5 4 3 3 2 2 2 2 3 4 5 5 5 6 5 4 3 3
2 1 2 4 5 8 15 21 26 29 30 32 33 32 28 24 21 20 21 20 18 15 9 3 1 1 2 2 1 0 0 0 1 1 2 3 4 4 4 5 4 3 2 2
4 4 5 7 10 14 20 23 21 20 20 21 23 22 19 16 15 16 16 15 14 11 6 1 0 0 1 1 1 0 0 0 1 1 2 1 2 2 3 3 2 1 1 1
4 4 7 11 15 17 19 19 16 13 12 12 13 14 12 10 11 13 13 11 10 7 4 1 0 0 1 2 2 1 0 1 1 1 2 1 0 1 1 2 1 0 0 0
1 2 5 10 13 14 13 11 9 9 8 8 9 10 9 7 7 7 7 6 5 3 1 0 0 0 1 2 2 1 0 0 0 1 1 0 0 0 0 1 1 0 0 0
0 0 3 6 9 10 8 5 6 7 7 8 9 9 8 6 4 2 2 1 1 1 0 0 0 0 0 1 1 0 0 0 0 0 0 0 0 0 0 0 0 0 0 0
0 0 2 4 6 6 4 4 5 7 8 8 8 8 6 4 2 1 0 0 0 0 0 0 0 0 0 0 0 0 0 0 0 0 0 0 0 0 0 0 0 0 0 0
0 0 1 2 2 2 2 2 4 5 6 7 6 4 2 1 1 0 0 0 0 0 0 0 0 0 0 0 0 0 0 0 0 0 0 0 0 0 0 0 0 0 0 0
0 0 0 0 0 0 0 1 3 4 4 5 4 2 1 1 1 0 0 0 0 0 0 0 0 0 0 0 0 0 0 0 0 0 0 0 0 0 0 0 0 0 0 0
0 0 0 0 0 0 0 1 2 4 4 4 3 1 1 1 1 0 0 0 0 0 0 0 0 0 0 0 0 0 0 0 0 0 0 0 0 0 0 0 0 0 0 0
0 0 0 0 0 0 0 0 1 2 3 2 2 1 1 0 0 0 0 0 0 0 0 0 0 0 0 0 0 0 0 0 0 0 0 0 0 0 0 0 0 0 0 0
0 0 0 1 1 1 1 0 0 1 1 1 1 1 0 0 0 0 0 0 0 0 0 0 0 0 0 0 0 0 0 0 0 0 0 0 0 0 0 0 0 0 0 0
0 0 0 1 1 1 0 0 0 1 0 0 0 0 0 0 0 0 0 0 0 0 0 0 0 0 0 0 0 0 0 0 0 0 0 0 0 0 0 0 0 0 0 0
0 0 0 1 1 0 0 0 1 1 0 0 0 0 0 0 0 0 0 0 0 0 0 0 0 0 0 0 0 0 0 0 0 0 0 0 0 0 0 0 0 0 0 0
0 0 0 0 0 0 0 1 1 1 0 0 0 0 0 0 0 0 0 0 0 0 0 0 0 0 0 0 0 0 0 0 0 0 0 0 0 0 0 0 0 0 0 0
0 0 0 0 0 0 0 1 2 1 0 0 0 0 0 0 0 0 0 0 0 0 0 0 0 0 0 0 0 0 0 0 0 0 0 0 0 0 0 0 0 0 0 0
0 0 0 0 0 0 0 0 1 1 0 0 0 0 0 0 0 0 0 0 0 0 0 0 0 0 0 0 0 0 0 0 0 0 0 0 0 0 0 0 0 0 0 0
0 0 0 0 0 0 0 0 0 0 0 0 0 0 0 0 0 0 0 0 0 0 0 0 0 0 0 0 0 0 0 0 0 0 0 0 0 0 0 0 0 0 0 0
0 0 0 0 0 0 0 0 0 0 0 0 0 0 0 0 0 0 0 0 0 0 0 0 0 0 0 0 0 0 0 0 0 0 0 0 0 0 0 0 0 0 0 0
0 0 0 0 0 0 0 0 0 0 0 0 0 0 0 0 0 0 0 0 0 0 0 0 0 0 0 0 0 0 0 0 0 0 0 0 0 0 0 0 0 0 0 0

GEFSNGP_con_probscp_156.txt.gz
Probability
0 0 0 0 0 0 0 0 0 0 0 0 1 2 6 10 12 13 17 19 20 19 16 12 8 8 7 6 5 4 3 3 3 2 2 1 1 2 4 4 3 4 5 6
0 0 0 0 0 0 0 0 0 0 0 0 1 3 8 13 16 17 20 21 20 18 15 12 11 10 9 7 5 4 3 3 3 2 1 1 2 4 5 5 5 5 6 6
0 0 0 0 0 0 0 0 0 0 1 1 2 5 10 16 19 19 20 20 18 16 14 13 13 13 10 7 4 3 3 3 2 2 2 2 3 5 6 6 6 6 6 6
0 0 0 0 0 0 0 1 2 2 2 3 5 8 10 13 15 15 16 17 17 15 13 12 14 13 10 5 3 3 2 1 1 1 2 2 3 4 5 6 5 4 3 3
0 0 0 0 1 0 1 3 5 5 5 7 9 10 9 10 12 13 15 17 17 15 13 12 13 13 9 5 4 3 1 1 1 2 2 2 2 3 4 4 4 2 1 1
0 0 0 0 0 0 1 2 3 5 6 8 9 10 10 12 14 15 15 17 17 16 13 12 11 10 8 6 5 3 1 1 2 2 1 1 1 1 2 2 1 1 0 0
0 0 0 0 0 0 0 0 1 3 5 8 8 9 13 16 17 16 15 15 15 14 11 9 7 7 6 4 3 2 0 0 1 1 0 0 0 0 1 1 0 0 0 0
0 0 0 0 0 0 0 0 0 2 5 9 12 14 16 16 16 16 16 15 14 10 7 5 4 3 3 1 1 0 0 0 0 0 0 0 0 0 1 2 1 0 0 0
0 0 0 0 0 0 0 0 1 3 7 11 15 17 15 13 13 15 16 16 14 9 5 3 2 1 1 0 0 0 0 0 0 0 0 0 0 0 1 2 2 2 1 0
0 0 0 0 0 1 2 2 3 6 9 11 14 15 13 12 12 13 14 14 13 9 5 2 1 0 0 0 0 0 0 0 0 0 0 0 0 0 0 1 2 3 2 1
0 0 0 0 1 3 4 5 6 7 8 9 10 10 10 9 10 11 11 10 9 7 5 2 0 0 0 0 0 0 0 0 0 0 0 0 0 0 0 0 1 2 2 2
0 0 0 1 1 3 4 5 7 6 6 6 6 6 5 5 5 5 5 5 4 3 3 1 0 0 0 0 0 0 0 0 0 0 0 0 0 0 0 0 0 0 1 1
0 0 1 2 3 3 3 3 5 5 4 4 4 4 3 1 1 1 2 2 2 1 1 1 0 0 0 0 0 0 0 0 0 0 0 0 0 0 0 0 0 0 0 0
0 0 1 3 4 3 2 1 2 3 3 2 3 3 3 1 0 0 1 2 1 1 0 0 0 0 0 0 0 0 0 0 0 0 0 0 0 0 0 0 0 0 0 0
0 0 0 1 1 1 1 0 0 1 1 1 1 2 2 1 0 0 1 1 1 0 0 0 0 0 0 0 0 0 0 0 0 0 0 0 0 0 0 0 0 0 0 0
0 0 0 0 0 0 0 0 0 0 0 0 0 1 1 0 0 0 0 0 0 0 0 0 0 0 0 0 0 0 0 0 0 0 0 0 0 0 0 0 0 0 0 0
0 0 0 0 0 0 0 0 0 0 0 0 0 0 0 0 0 0 0 0 0 0 0 0 0 0 0 0 0 0 0 0 0 0 0 0 0 0 0 0 0 0 0 0
0 0 0 0 0 0 0 0 0 0 0 0 0 0 0 0 0 0 0 0 0 0 0 0 0 0 0 0 0 0 0 0 0 0 0 0 0 0 0 0 0 0 0 0
0 0 0 0 0 0 0 0 0 0 0 0 0 0 0 0 0 0 0 0 0 0 0 0 0 0 0 0 0 0 0 0 0 0 0 0 0 0 0 0 0 0 0 0
0 0 0 0 0 0 0 0 0 0 0 0 0 0 0 0 0 0 0 0 0 0 0 0 0 0 0 0 0 0 0 0 0 0 0 0 0 0 0 0 0 0 0 0
0 0 0 0 0 0 0 0 0 0 0 0 0 0 0 0 0 0 0 0 0 0 0 0 0 0 0 0 0 0 0 0 0 0 0 0 0 0 0 0 0 0 0 0
0 0 0 0 0 0 0 0 0 0 0 0 0 0 0 0 0 0 0 0 0 0 0 0 0 0 0 0 0 0 0 0 0 0 0 0 0 0 0 0 0 0 0 0
0 0 0 0 0 0 0 0 0 0 0 0 0 0 0 0 0 0 0 0 0 0 0 0 0 0 0 0 0 0 0 0 0 0 0 0 0 0 0 0 0 0 0 0
0 0 0 0 0 0 0 0 0 0 0 0 0 0 0 0 0 0 0 0 0 0 0 0 0 0 0 0 0 0 0 0 0 0 0 0 0 0 0 0 0 0 0 0
0 0 0 0 0 0 0 0 0 0 0 0 0 0 0 0 0 0 0 0 0 0 0 0 0 0 0 0 0 0 0 0 0 0 0 0 0 0 0 0 0 0 0 0
0 0 0 0 0 0 0 0 0 0 0 0 0 0 0 0 0 0 0 0 0 0 0 0 0 0 0 0 0 0 0 0 0 0 0 0 0 0 0 0 0 0 0 0
0 0 0 0 0 0 0 0 0 0 0 0 0 0 0 0 0 0 0 0 0 0 0 0 0 0 0 0 0 0 0 0 0 0 0 0 0 0 0 0 0 0 0 0

GEFSNGP_con_probscp_162.txt.gz
Probability
0 0 0 0 0 0 0 0 0 0 0 0 1 4 8 15 23 30 36 38 38 38 37 36 32 27 22 19 19 17 17 17 16 13 10 9 7 5 3 1 1 1 1 1
0 0 0 0 0 0 0 0 0 0 0 0 1 5 11 18 26 33 37 39 39 40 40 37 33 28 23 20 19 18 17 17 17 15 12 10 8 6 4 4 3 4 4 4
0 0 0 0 0 0 0 0 0 0 0 0 2 8 15 21 26 33 38 39 40 42 42 39 34 30 26 22 20 18 17 16 16 15 13 11 9 8 8 7 7 8 8 8
0 0 0 0 0 0 0 0 0 0 0 1 4 10 15 20 25 31 37 40 41 42 42 39 36 33 29 25 21 17 16 16 16 15 13 11 10 9 8 8 9 9 9 9
0 0 0 0 0 0 0 0 1 2 3 4 6 9 14 20 26 31 36 40 41 41 40 39 38 37 33 27 20 16 15 16 15 13 11 9 8 8 8 8 8 8 8 7
0 0 0 1 1 0 0 3 8 11 12 12 14 15 20 26 30 32 35 38 40 40 39 39 40 41 38 29 21 17 15 13 12 10 8 7 7 8 8 7 7 7 6 6
0 0 1 2 3 4 8 15 22 25 24 24 27 30 32 35 35 34 33 35 37 40 42 42 42 43 39 30 22 17 14 10 8 6 5 5 7 9 9 7 6 5 5 4
1 1 3 6 9 13 23 31 34 34 33 33 36 38 39 39 38 36 33 31 34 39 42 41 39 38 34 26 18 13 10 7 4 2 2 3 5 7 8 7 5 4 4 4
4 4 6 11 16 22 30 37 40 38 37 37 36 36 35 34 34 34 32 29 30 34 35 34 32 30 26 20 14 10 6 3 1 0 0 2 3 4 5 6 5 4 4 4
8 7 8 14 21 26 31 35 39 39 36 33 32 30 26 25 27 27 26 25 25 27 28 27 25 22 19 15 11 8 4 1 0 0 0 1 2 2 3 4 4 3 3 3
10 9 9 13 20 26 29 32 34 33 29 26 26 24 20 20 23 22 21 22 24 24 24 22 19 17 15 12 8 4 2 0 0 0 0 0 1 1 1 2 2 2 1 1
9 11 11 12 16 21 25 26 27 26 24 22 20 18 17 18 21 21 20 22 23 23 20 17 14 12 10 8 5 2 0 0 0 0 0 0 0 0 0 1 1 1 0 0
9 11 11 10 11 15 19 22 23 22 19 17 17 16 15 16 19 19 17 17 18 18 16 13 10 8 6 5 3 1 0 0 0 0 0 0 0 0 0 0 0 0 0 0
9 9 10 8 7 9 13 16 18 17 13 11 13 14 14 15 16 14 12 12 12 13 11 9 6 3 2 3 4 2 1 0 0 0 0 0 0 0 0 0 0 0 0 0
6 6 7 5 4 5 7 8 9 9 7 8 10 11 12 11 10 9 9 9 9 9 8 5 3 1 1 3 3 2 1 0 0 0 0 0 0 0 0 0 0 0 0 0
2 3 4 3 1 2 3 3 3 2 4 6 8 9 8 7 5 5 6 8 8 8 6 5 4 2 1 2 2 1 0 0 0 0 0 0 0 0 0 0 0 0 0 0
1 1 2 1 0 0 1 1 1 1 2 4 5 5 5 5 4 5 6 8 9 7 6 4 4 2 1 1 1 0 0 0 0 0 0 0 0 0 0 0 0 0 0 0
0 1 1 0 0 0 0 0 0 1 2 2 1 2 4 5 5 6 8 10 9 6 4 2 1 1 0 0 0 0 0 0 0 0 0 0 0 0 0 0 0 0 0 0
0 0 0 0 0 0 0 1 1 3 3 1 0 1 2 3 5 6 7 8 6 4 2 0 0 0 0 0 0 0 0 0 0 0 0 0 0 0 0 0 0 0 0 0
0 0 0 0 0 0 1 2 4 4 3 1 0 1 2 3 4 6 5 4 3 1 0 0 0 0 0 0 0 0 0 0 0 0 0 0 0 0 0 0 0 0 0 0
0 0 0 0 0 0 2 3 4 4 2 1 0 1 2 2 3 4 3 1 1 0 0 0 0 0 0 0 0 0 0 0 0 0 0 0 0 0 0 0 0 0 0 0
0 0 0 0 0 1 1 2 3 2 1 0 0 0 1 1 1 1 1 0 0 0 0 0 0 0 0 0 0 0 0 0 0 0 0 0 0 0 0 0 0 0 0 0
0 0 0 1 1 2 1 1 1 0 0 0 0 0 0 0 0 0 0 0 0 0 0 0 0 0 0 0 0 0 0 0 0 0 0 0 0 0 0 0 0 0 0 0
2 1 1 2 3 3 3 2 1 1 0 0 0 0 0 0 0 0 0 0 0 0 0 0 0 0 0 0 0 0 0 0 0 0 0 0 0 0 0 0 0 0 0 0
4 4 3 3 3 3 4 3 2 1 0 0 0 0 0 0 0 0 0 0 0 0 0 0 0 0 0 0 0 0 0 0 0 0 0 0 0 0 0 0 0 0 0 0
4 4 4 3 3 3 3 3 2 1 0 0 0 0 0 0 0 0 0 0 0 0 0 0 0 0 0 0 0 0 0 0 0 0 0 0 0 0 0 0 0 0 0 0
3 4 4 3 2 1 2 1 1 0 0 0 0 0 0 0 0 0 0 0 0 0 0 0 0 0 0 0 0 0 0 0 0 0 0 0 0 0 0 0 0 0 0 0

GEFSNGP_con_probscp_168.txt.gz
Probability
0 0 0 0 0 0 0 0 0 0 2 6 11 23 38 47 51 55 59 66 73 78 79 77 72 65 60 55 51 48 45 44 44 41 36 33 29 25 23 21 18 15 14 14
0 0 0 0 0 0 0 0 0 1 4 11 20 34 46 52 55 59 63 69 76 80 82 79 73 68 65 61 54 49 46 45 44 40 35 32 28 24 23 22 19 17 15 14
0 0 0 0 0 0 0 0 0 2 8 20 34 47 55 58 60 65 70 75 81 84 84 79 72 70 71 66 57 51 46 44 42 39 35 31 27 23 22 21 20 19 16 13
0 0 0 0 0 0 0 1 3 9 16 28 41 50 56 62 67 72 76 79 83 83 80 75 71 69 69 65 58 52 47 44 42 39 35 31 27 23 21 21 20 19 15 11
0 0 0 1 1 1 1 5 14 21 26 33 39 45 54 65 73 76 78 80 82 78 74 71 69 66 63 60 56 51 48 46 43 38 33 30 27 23 20 19 17 14 11 9
1 0 2 4 5 4 7 18 32 38 38 40 43 47 58 70 75 75 76 79 80 74 70 69 67 63 59 57 54 50 47 45 41 38 33 29 27 23 19 15 11 9 8 9
2 2 6 12 14 16 26 42 54 55 53 54 58 63 69 75 76 73 73 75 74 70 67 65 62 59 57 56 52 47 43 41 40 38 33 28 25 20 14 11 8 7 7 8
7 11 20 28 31 39 53 63 67 66 65 67 70 72 74 76 75 71 69 67 64 61 61 58 55 53 53 51 47 42 38 36 36 35 29 22 18 14 10 8 6 5 5 7
21 28 40 46 49 55 62 65 66 65 66 68 69 70 72 73 70 66 62 58 56 55 55 53 49 47 46 43 39 36 32 29 29 26 20 14 11 8 6 4 4 4 4 4
34 40 46 49 51 51 53 56 59 60 61 64 66 67 69 69 65 60 56 53 52 53 52 49 44 39 37 36 33 29 25 22 20 16 11 8 6 3 2 2 2 2 3 3
38 40 40 41 40 39 42 49 53 57 61 65 66 66 65 63 59 54 52 51 50 48 45 41 36 32 30 29 27 23 20 18 14 9 5 3 2 1 0 1 1 1 1 2
34 35 37 36 33 32 36 43 49 57 64 65 63 61 57 53 49 46 44 44 42 39 35 31 28 27 26 25 23 20 17 14 9 4 1 1 0 0 0 0 0 0 0 1
29 31 32 32 30 29 33 40 47 54 59 59 56 51 45 40 36 33 31 31 31 30 28 26 25 24 23 23 21 18 14 9 4 1 0 0 0 0 0 0 0 0 0 0
25 25 25 26 26 26 30 35 40 44 47 48 47 41 35 29 25 21 19 19 22 25 25 23 20 19 19 20 19 15 9 5 1 0 0 0 0 0 0 0 0 0 0 0
19 19 20 21 22 23 26 28 28 30 33 37 38 34 28 22 17 14 13 14 18 22 22 18 14 13 14 16 16 12 7 2 1 0 0 0 0 0 0 0 0 0 0 0
13 14 15 16 16 17 20 21 21 20 21 24 26 26 23 18 13 9 9 12 16 19 19 14 11 12 12 12 11 10 6 2 1 0 0 0 0 0 0 0 0 0 0 0
11 12 12 12 10 9 12 15 16 15 13 14 17 18 18 15 11 7 8 11 14 15 15 13 12 13 12 10 8 7 4 1 0 0 0 0 0 0 0 0 0 0 0 0
11 11 9 8 5 4 5 7 10 11 11 12 14 14 12 12 11 10 10 11 12 12 12 13 12 12 11 9 7 6 4 1 0 0 0 0 0 0 0 0 0 0 0 0
8 8 6 4 3 3 4 6 8 9 10 13 16 14 11 11 13 13 12 13 12 12 12 12 11 11 10 7 7 7 5 2 0 0 0 0 0 0 0 0 0 0 0 0
5 5 3 1 1 3 7 11 12 11 11 14 16 14 11 10 12 13 13 13 14 13 12 10 10 9 8 5 5 5 4 2 0 0 0 0 0 0 0 0 0 0 0 0
4 3 2 1 1 4 10 15 16 13 12 11 12 10 8 8 9 10 11 12 12 12 9 7 7 7 5 3 2 2 1 1 0 0 0 0 0 0 0 0 0 0 0 0
4 3 3 2 2 5 10 16 16 13 9 8 7 6 5 5 6 8 9 10 9 6 5 4 4 3 2 1 0 0 0 0 0 0 0 0 0 0 0 0 0 0 0 0
4 3 3 4 5 7 10 13 14 11 9 7 7 7 5 4 5 6 7 7 4 2 2 2 2 1 0 0 0 0 0 0 0 0 0 0 0 0 0 0 0 0 0 0
6 5 5 7 9 10 12 13 12 11 9 8 7 6 5 3 3 4 4 2 1 0 0 0 0 0 0 0 0 0 0 0 0 0 0 0 0 0 0 0 0 0 0 0
7 7 8 9 10 11 13 12 10 9 7 5 4 3 3 3 2 2 2 0 0 0 0 0 0 0 0 0 0 0 0 0 0 0 0 0 0 0 0 0 0 0 0 0
7 8 9 9 8 9 9 8 8 6 4 2 2 2 2 2 2 2 1 0 0 0 0 0 0 0 0 0 0 0 0 0 0 0 0 0 0 0 0 0 0 0 0 0
6 8 9 7 7 6 4 4 7 7 4 2 2 2 2 2 2 1 0 0 0 0 0 0 0 0 0 0 0 0 0 0 0 0 0 0 0 0 0 0 0 0 0 0